GEOSCAN-EDELVEIS (RS20S) (53385 NORAD) Tracking and Keplerian Element Data

This shows tracking and keplerian element data for the satellite.

Feedback or suggestion? Click here.




ElementValue
Catalog53385
NameGEOSCAN-EDELVEIS (RS20S)
Epoch Orbit8025
Epoch Day12.62860764
Epoch Year2024
RAAN290.91
Inclination97.3945
Eccentricity0.000534
Argument of Perigee75.1521
Mean Anonmoly285.0336
Mean Motion15.75410961
Decay Rate0.00244389
L11 53385U 22096R 24012.62860764 .00244389 00000+0 15769-2 0 9990
L22 53385 97.3945 290.9100 0005340 75.1521 285.0336 15.75410961 80258



Live tracking and technical data element details for GEOSCAN-EDELVEIS (RS20S) (NORAD 53385). GEOSCAN-EDELVEIS (RS20S) can be tracked NOW for your location showing map with azimuth and elevation plus other details from your city location.







IsCatalogInMostPopularTable: catalog: 53385, numindb: 48
Update: records affected: 1



GetName: 53385 GEOSCAN-EDELVEIS (RS20S)

Hit Count: updated at: Thu, 23 Jan 2025 17:56:34 GMT